Datum;"Wasserstand in cm";"Stationsnummer: 6602600";"Stationsname: Schlagsdorf";"Gew?sser: Lausitzer Nei�e";"Fehlwerte: -777"
"02.04.2024 00:00";84
"02.04.2024 00:15";84
"02.04.2024 00:30";84
"02.04.2024 00:45";84
"02.04.2024 01:00";84
"02.04.2024 01:15";84
"02.04.2024 01:30";84
"02.04.2024 01:45";84
"02.04.2024 02:00";84
"02.04.2024 02:15";84
"02.04.2024 02:30";85
"02.04.2024 02:45";85
"02.04.2024 03:00";85
"02.04.2024 03:15";85
"02.04.2024 03:30";85
"02.04.2024 03:45";85
"02.04.2024 04:00";85
"02.04.2024 04:15";85
"02.04.2024 04:30";85
"02.04.2024 04:45";85
"02.04.2024 05:00";86
"02.04.2024 05:15";86
"02.04.2024 05:30";86
"02.04.2024 05:45";86
"02.04.2024 06:00";86
"02.04.2024 06:15";86
"02.04.2024 06:30";86
"02.04.2024 06:45";86
"02.04.2024 07:00";86
"02.04.2024 07:15";86
"02.04.2024 07:30";86
"02.04.2024 07:45";86
"02.04.2024 08:00";86
"02.04.2024 08:15";86
"02.04.2024 08:30";86
"02.04.2024 08:45";86
"02.04.2024 09:00";86
"02.04.2024 09:15";86
"02.04.2024 09:30";86
"02.04.2024 09:45";86
"02.04.2024 10:00";86
"02.04.2024 10:15";86
"02.04.2024 10:30";86
"02.04.2024 10:45";86
"02.04.2024 11:00";86
"02.04.2024 11:15";86
"02.04.2024 11:30";86
"02.04.2024 11:45";86
"02.04.2024 12:00";86
"02.04.2024 12:15";86
"02.04.2024 12:30";87
"02.04.2024 12:45";87
"02.04.2024 13:00";87
"02.04.2024 13:15";87
"02.04.2024 13:30";86
"02.04.2024 13:45";86
"02.04.2024 14:00";86
"02.04.2024 14:15";86
"02.04.2024 14:30";86
"02.04.2024 14:45";86
"02.04.2024 15:00";86
"02.04.2024 15:15";86
"02.04.2024 15:30";86
"02.04.2024 15:45";86
"02.04.2024 16:00";86
"02.04.2024 16:15";86
"02.04.2024 16:30";86
"02.04.2024 16:45";86
"02.04.2024 17:00";86
"02.04.2024 17:15";85
"02.04.2024 17:30";85
"02.04.2024 17:45";85
"02.04.2024 18:00";85
"02.04.2024 18:15";85
"02.04.2024 18:30";85
"02.04.2024 18:45";85
"02.04.2024 19:00";85
"02.04.2024 19:15";85
"02.04.2024 19:30";85
"02.04.2024 19:45";85
"02.04.2024 20:00";85
"02.04.2024 20:15";85
"02.04.2024 20:30";85
"02.04.2024 20:45";85
"02.04.2024 21:00";85
"02.04.2024 21:15";85
"02.04.2024 21:30";85
"02.04.2024 21:45";85
"02.04.2024 22:00";85
"02.04.2024 22:15";85
"02.04.2024 22:30";85
"02.04.2024 22:45";85
"02.04.2024 23:00";85
"02.04.2024 23:15";85
"02.04.2024 23:30";86
"02.04.2024 23:45";85
"03.04.2024 00:00";85
"03.04.2024 00:15";85
"03.04.2024 00:30";85
"03.04.2024 00:45";85
"03.04.2024 01:00";86
"03.04.2024 01:15";86
"03.04.2024 01:30";86
"03.04.2024 01:45";86
"03.04.2024 02:00";86
"03.04.2024 02:15";86
"03.04.2024 02:30";86
"03.04.2024 02:45";86
"03.04.2024 03:00";86
"03.04.2024 03:15";86
"03.04.2024 03:30";86
"03.04.2024 03:45";86
"03.04.2024 04:00";86
"03.04.2024 04:15";86
"03.04.2024 04:30";86
"03.04.2024 04:45";86
"03.04.2024 05:00";86
"03.04.2024 05:15";86
"03.04.2024 05:30";86
"03.04.2024 05:45";86
"03.04.2024 06:00";86
"03.04.2024 06:15";86
"03.04.2024 06:30";86
"03.04.2024 06:45";85
"03.04.2024 07:00";85
"03.04.2024 07:15";86
"03.04.2024 07:30";86
"03.04.2024 07:45";85
"03.04.2024 08:00";85
"03.04.2024 08:15";85
"03.04.2024 08:30";85
"03.04.2024 08:45";86
"03.04.2024 09:00";86
"03.04.2024 09:15";86
"03.04.2024 09:30";86
"03.04.2024 09:45";86
"03.04.2024 10:00";86
"03.04.2024 10:15";86
"03.04.2024 10:30";86
"03.04.2024 10:45";85
"03.04.2024 11:00";85
"03.04.2024 11:15";85
"03.04.2024 11:30";85
"03.04.2024 11:45";86
"03.04.2024 12:00";86
"03.04.2024 12:15";86
"03.04.2024 12:30";86
"03.04.2024 12:45";86
"03.04.2024 13:00";86
"03.04.2024 13:15";86
"03.04.2024 13:30";86
"03.04.2024 13:45";86
"03.04.2024 14:00";86
"03.04.2024 14:15";86
"03.04.2024 14:30";86
"03.04.2024 14:45";86
"03.04.2024 15:00";86
"03.04.2024 15:15";86
"03.04.2024 15:30";86
"03.04.2024 15:45";86
"03.04.2024 16:00";86
"03.04.2024 16:15";86
"03.04.2024 16:30";86
"03.04.2024 16:45";86
"03.04.2024 17:00";86
"03.04.2024 17:15";86
"03.04.2024 17:30";86
"03.04.2024 17:45";86
"03.04.2024 18:00";86
"03.04.2024 18:15";86
"03.04.2024 18:30";86
"03.04.2024 18:45";86
"03.04.2024 19:00";86
"03.04.2024 19:15";87
"03.04.2024 19:30";87
"03.04.2024 19:45";87
"03.04.2024 20:00";88
"03.04.2024 20:15";88
"03.04.2024 20:30";88
"03.04.2024 20:45";88
"03.04.2024 21:00";88
"03.04.2024 21:15";88
"03.04.2024 21:30";88
"03.04.2024 21:45";87
"03.04.2024 22:00";87
"03.04.2024 22:15";87
"03.04.2024 22:30";87
"03.04.2024 22:45";87
"03.04.2024 23:00";87
"03.04.2024 23:15";86
"03.04.2024 23:30";86
"03.04.2024 23:45";86
"04.04.2024 00:00";85
"04.04.2024 00:15";85
"04.04.2024 00:30";85
"04.04.2024 00:45";85
"04.04.2024 01:00";84
"04.04.2024 01:15";84
"04.04.2024 01:30";84
"04.04.2024 01:45";84
"04.04.2024 02:00";84
"04.04.2024 02:15";84
"04.04.2024 02:30";84
"04.04.2024 02:45";84
"04.04.2024 03:00";84
"04.04.2024 03:15";84
"04.04.2024 03:30";84
"04.04.2024 03:45";84
"04.04.2024 04:00";84
"04.04.2024 04:15";84
"04.04.2024 04:30";84
"04.04.2024 04:45";84
"04.04.2024 05:00";84
"04.04.2024 05:15";84
"04.04.2024 05:30";84
"04.04.2024 05:45";84
"04.04.2024 06:00";84
"04.04.2024 06:15";84
"04.04.2024 06:30";84
"04.04.2024 06:45";83
"04.04.2024 07:00";83
"04.04.2024 07:15";83
"04.04.2024 07:30";83
"04.04.2024 07:45";83
"04.04.2024 08:00";83
"04.04.2024 08:15";83
"04.04.2024 08:30";83
"04.04.2024 08:45";83
"04.04.2024 09:00";83
"04.04.2024 09:15";83
"04.04.2024 09:30";83
"04.04.2024 09:45";83
"04.04.2024 10:00";83
"04.04.2024 10:15";83
"04.04.2024 10:30";83
"04.04.2024 10:45";83
"04.04.2024 11:00";83
"04.04.2024 11:15";83
"04.04.2024 11:30";83
"04.04.2024 11:45";83
"04.04.2024 12:00";83
"04.04.2024 12:15";83
"04.04.2024 12:30";83
"04.04.2024 12:45";83
"04.04.2024 13:00";83
"04.04.2024 13:15";83
"04.04.2024 13:30";84
"04.04.2024 13:45";84
"04.04.2024 14:00";84
"04.04.2024 14:15";84
"04.04.2024 14:30";84
"04.04.2024 14:45";84
"04.04.2024 15:00";84
"04.04.2024 15:15";84
"04.04.2024 15:30";84
"04.04.2024 15:45";84
"04.04.2024 16:00";84
"04.04.2024 16:15";84
"04.04.2024 16:30";84
"04.04.2024 16:45";84
"04.04.2024 17:00";84
"04.04.2024 17:15";84
"04.04.2024 17:30";85
"04.04.2024 17:45";85
"04.04.2024 18:00";85
"04.04.2024 18:15";85
"04.04.2024 18:30";85
"04.04.2024 18:45";85
"04.04.2024 19:00";85
"04.04.2024 19:15";85
"04.04.2024 19:30";85
"04.04.2024 19:45";85
"04.04.2024 20:00";85
"04.04.2024 20:15";85
"04.04.2024 20:30";85
"04.04.2024 20:45";85
"04.04.2024 21:00";85
"04.04.2024 21:15";85
"04.04.2024 21:30";85
"04.04.2024 21:45";85
"04.04.2024 22:00";85
"04.04.2024 22:15";85
"04.04.2024 22:30";85
"04.04.2024 22:45";85
"04.04.2024 23:00";85
"04.04.2024 23:15";85
"04.04.2024 23:30";85
"04.04.2024 23:45";85
"05.04.2024 00:00";85
"05.04.2024 00:15";85
"05.04.2024 00:30";84
"05.04.2024 00:45";84
"05.04.2024 01:00";84
"05.04.2024 01:15";84
"05.04.2024 01:30";84
"05.04.2024 01:45";84
"05.04.2024 02:00";84
"05.04.2024 02:15";84
"05.04.2024 02:30";84
"05.04.2024 02:45";84
"05.04.2024 03:00";84
"05.04.2024 03:15";85
"05.04.2024 03:30";85
"05.04.2024 03:45";85
"05.04.2024 04:00";85
"05.04.2024 04:15";85
"05.04.2024 04:30";84
"05.04.2024 04:45";84
"05.04.2024 05:00";84
"05.04.2024 05:15";84
"05.04.2024 05:30";84
"05.04.2024 05:45";84
"05.04.2024 06:00";84
"05.04.2024 06:15";84
"05.04.2024 06:30";84
"05.04.2024 06:45";84
"05.04.2024 07:00";82
"05.04.2024 07:15";79
"05.04.2024 07:30";77
"05.04.2024 07:45";76
"05.04.2024 08:00";79
"05.04.2024 08:15";82
"05.04.2024 08:30";85
"05.04.2024 08:45";88
"05.04.2024 09:00";89
"05.04.2024 09:15";89
"05.04.2024 09:30";91
"05.04.2024 09:45";92
"05.04.2024 10:00";91
"05.04.2024 10:15";88
"05.04.2024 10:30";85
"05.04.2024 10:45";84
"05.04.2024 11:00";84
"05.04.2024 11:15";84
"05.04.2024 11:30";83
"05.04.2024 11:45";82
"05.04.2024 12:00";82
"05.04.2024 12:15";81
"05.04.2024 12:30";81
"05.04.2024 12:45";81
"05.04.2024 13:00";81
"05.04.2024 13:15";82
"05.04.2024 13:30";82
"05.04.2024 13:45";83
"05.04.2024 14:00";84
"05.04.2024 14:15";84
"05.04.2024 14:30";85
"05.04.2024 14:45";85
"05.04.2024 15:00";85
"05.04.2024 15:15";85
"05.04.2024 15:30";85
"05.04.2024 15:45";85
"05.04.2024 16:00";85
"05.04.2024 16:15";85
"05.04.2024 16:30";85
"05.04.2024 16:45";85
"05.04.2024 17:00";85
"05.04.2024 17:15";85
"05.04.2024 17:30";85
"05.04.2024 17:45";85
"05.04.2024 18:00";85
"05.04.2024 18:15";85
"05.04.2024 18:30";85
"05.04.2024 18:45";85
"05.04.2024 19:00";85
"05.04.2024 19:15";85
"05.04.2024 19:30";85
"05.04.2024 19:45";85
"05.04.2024 20:00";85
"05.04.2024 20:15";84
"05.04.2024 20:30";84
"05.04.2024 20:45";84
"05.04.2024 21:00";84
"05.04.2024 21:15";84
"05.04.2024 21:30";84
"05.04.2024 21:45";84
"05.04.2024 22:00";84
"05.04.2024 22:15";85
"05.04.2024 22:30";84
"05.04.2024 22:45";84
"05.04.2024 23:00";84
"05.04.2024 23:15";84
"05.04.2024 23:30";84
"05.04.2024 23:45";84
"06.04.2024 00:00";84
"06.04.2024 00:15";83
"06.04.2024 00:30";83
"06.04.2024 00:45";83
"06.04.2024 01:00";83
"06.04.2024 01:15";83
"06.04.2024 01:30";83
"06.04.2024 01:45";83
"06.04.2024 02:00";83
"06.04.2024 02:15";83
"06.04.2024 02:30";83
"06.04.2024 02:45";83
"06.04.2024 03:00";83
"06.04.2024 03:15";83
"06.04.2024 03:30";83
"06.04.2024 03:45";83
"06.04.2024 04:00";83
"06.04.2024 04:15";84
"06.04.2024 04:30";84
"06.04.2024 04:45";84
"06.04.2024 05:00";84
"06.04.2024 05:15";84
"06.04.2024 05:30";84
"06.04.2024 05:45";84
"06.04.2024 06:00";84
"06.04.2024 06:15";84
"06.04.2024 06:30";84
"06.04.2024 06:45";84
"06.04.2024 07:00";84
"06.04.2024 07:15";84
"06.04.2024 07:30";84
"06.04.2024 07:45";84
"06.04.2024 08:00";84
"06.04.2024 08:15";84
"06.04.2024 08:30";84
"06.04.2024 08:45";84
"06.04.2024 09:00";84
"06.04.2024 09:15";84
"06.04.2024 09:30";84
"06.04.2024 09:45";84
"06.04.2024 10:00";84
"06.04.2024 10:15";84
"06.04.2024 10:30";84
"06.04.2024 10:45";84
"06.04.2024 11:00";84
"06.04.2024 11:15";84
"06.04.2024 11:30";84
"06.04.2024 11:45";84
"06.04.2024 12:00";84
"06.04.2024 12:15";84
"06.04.2024 12:30";84
"06.04.2024 12:45";84
"06.04.2024 13:00";84
"06.04.2024 13:15";84
"06.04.2024 13:30";84
"06.04.2024 13:45";84
"06.04.2024 14:00";84
"06.04.2024 14:15";84
"06.04.2024 14:30";84
"06.04.2024 14:45";84
"06.04.2024 15:00";84
"06.04.2024 15:15";84
"06.04.2024 15:30";85
"06.04.2024 15:45";85
"06.04.2024 16:00";85
"06.04.2024 16:15";85
"06.04.2024 16:30";85
"06.04.2024 16:45";85
"06.04.2024 17:00";85
"06.04.2024 17:15";85
"06.04.2024 17:30";85
"06.04.2024 17:45";85
"06.04.2024 18:00";85
"06.04.2024 18:15";84
"06.04.2024 18:30";84
"06.04.2024 18:45";84
"06.04.2024 19:00";84
"06.04.2024 19:15";84
"06.04.2024 19:30";84
"06.04.2024 19:45";84
"06.04.2024 20:00";83
"06.04.2024 20:15";83
"06.04.2024 20:30";83
"06.04.2024 20:45";83
"06.04.2024 21:00";83
"06.04.2024 21:15";83
"06.04.2024 21:30";83
"06.04.2024 21:45";82
"06.04.2024 22:00";82
"06.04.2024 22:15";82
"06.04.2024 22:30";82
"06.04.2024 22:45";82
"06.04.2024 23:00";82
"06.04.2024 23:15";82
"06.04.2024 23:30";82
"06.04.2024 23:45";82
"07.04.2024 00:00";82
"07.04.2024 00:15";82
"07.04.2024 00:30";82
"07.04.2024 00:45";82
"07.04.2024 01:00";83
"07.04.2024 01:15";83
"07.04.2024 01:30";83
"07.04.2024 01:45";83
"07.04.2024 02:00";83
"07.04.2024 02:15";83
"07.04.2024 02:30";83
"07.04.2024 02:45";83
"07.04.2024 03:00";83
"07.04.2024 03:15";83
"07.04.2024 03:30";83
"07.04.2024 03:45";83
"07.04.2024 04:00";83
"07.04.2024 04:15";83
"07.04.2024 04:30";84
"07.04.2024 04:45";84
"07.04.2024 05:00";84
"07.04.2024 05:15";84
"07.04.2024 05:30";85
"07.04.2024 05:45";85
"07.04.2024 06:00";85
"07.04.2024 06:15";85
"07.04.2024 06:30";85
"07.04.2024 06:45";85
"07.04.2024 07:00";85
"07.04.2024 07:15";85
"07.04.2024 07:30";85
"07.04.2024 07:45";84
"07.04.2024 08:00";84
"07.04.2024 08:15";84
"07.04.2024 08:30";84
"07.04.2024 08:45";84
"07.04.2024 09:00";84
"07.04.2024 09:15";84
"07.04.2024 09:30";84
"07.04.2024 09:45";84
"07.04.2024 10:00";84
"07.04.2024 10:15";84
"07.04.2024 10:30";84
"07.04.2024 10:45";84
"07.04.2024 11:00";84
"07.04.2024 11:15";84
"07.04.2024 11:30";84
"07.04.2024 11:45";84
"07.04.2024 12:00";84
"07.04.2024 12:15";84
"07.04.2024 12:30";84
"07.04.2024 12:45";84
"07.04.2024 13:00";84
"07.04.2024 13:15";84
"07.04.2024 13:30";84
"07.04.2024 13:45";84
"07.04.2024 14:00";84
"07.04.2024 14:15";85
"07.04.2024 14:30";85
"07.04.2024 14:45";85
"07.04.2024 15:00";85
"07.04.2024 15:15";85
"07.04.2024 15:30";85
"07.04.2024 15:45";85
"07.04.2024 16:00";85
"07.04.2024 16:15";85
"07.04.2024 16:30";85
"07.04.2024 16:45";85
"07.04.2024 17:00";85
"07.04.2024 17:15";85
"07.04.2024 17:30";85
"07.04.2024 17:45";85
"07.04.2024 18:00";85
"07.04.2024 18:15";85
"07.04.2024 18:30";85
"07.04.2024 18:45";85
"07.04.2024 19:00";84
"07.04.2024 19:15";84
"07.04.2024 19:30";84
"07.04.2024 19:45";84
"07.04.2024 20:00";84
"07.04.2024 20:15";84
"07.04.2024 20:30";84
"07.04.2024 20:45";83
"07.04.2024 21:00";83
"07.04.2024 21:15";83
"07.04.2024 21:30";83
"07.04.2024 21:45";83
"07.04.2024 22:00";83
"07.04.2024 22:15";82
"07.04.2024 22:30";82
"07.04.2024 22:45";82
"07.04.2024 23:00";82
"07.04.2024 23:15";82
"07.04.2024 23:30";82
"07.04.2024 23:45";82
"08.04.2024 00:00";82
"08.04.2024 00:15";82
"08.04.2024 00:30";82
"08.04.2024 00:45";82
"08.04.2024 01:00";82
"08.04.2024 01:15";82
"08.04.2024 01:30";82
"08.04.2024 01:45";83
"08.04.2024 02:00";83
"08.04.2024 02:15";82
"08.04.2024 02:30";82
"08.04.2024 02:45";82
"08.04.2024 03:00";82
"08.04.2024 03:15";82
"08.04.2024 03:30";82
"08.04.2024 03:45";82
"08.04.2024 04:00";82
"08.04.2024 04:15";82
"08.04.2024 04:30";82
"08.04.2024 04:45";82
"08.04.2024 05:00";82
"08.04.2024 05:15";82
"08.04.2024 05:30";82
"08.04.2024 05:45";82
"08.04.2024 06:00";82
"08.04.2024 06:15";81
"08.04.2024 06:30";81
"08.04.2024 06:45";81
"08.04.2024 07:00";81
"08.04.2024 07:15";81
"08.04.2024 07:30";81
"08.04.2024 07:45";81
"08.04.2024 08:00";81
"08.04.2024 08:15";81
"08.04.2024 08:30";81
"08.04.2024 08:45";81
"08.04.2024 09:00";81
"08.04.2024 09:15";81
"08.04.2024 09:30";81
"08.04.2024 09:45";81
"08.04.2024 10:00";81
"08.04.2024 10:15";81
"08.04.2024 10:30";81
"08.04.2024 10:45";81
"08.04.2024 11:00";81
"08.04.2024 11:15";81
"08.04.2024 11:30";81
"08.04.2024 11:45";81
"08.04.2024 12:00";81
"08.04.2024 12:15";81
"08.04.2024 12:30";81
"08.04.2024 12:45";81
"08.04.2024 13:00";81
"08.04.2024 13:15";81
"08.04.2024 13:30";81
"08.04.2024 13:45";81
"08.04.2024 14:00";80
"08.04.2024 14:15";80
"08.04.2024 14:30";80
"08.04.2024 14:45";80
"08.04.2024 15:00";80
"08.04.2024 15:15";80
"08.04.2024 15:30";80
"08.04.2024 15:45";80
"08.04.2024 16:00";80
"08.04.2024 16:15";80
"08.04.2024 16:30";80
"08.04.2024 16:45";80
"08.04.2024 17:00";80
"08.04.2024 17:15";80
"08.04.2024 17:30";80
"08.04.2024 17:45";80
"08.04.2024 18:00";80
"08.04.2024 18:15";80
"08.04.2024 18:30";80
"08.04.2024 18:45";80
"08.04.2024 19:00";80
"08.04.2024 19:15";80
"08.04.2024 19:30";80
"08.04.2024 19:45";80
"08.04.2024 20:00";80
"08.04.2024 20:15";80
"08.04.2024 20:30";80
"08.04.2024 20:45";80
"08.04.2024 21:00";80
"08.04.2024 21:15";79
"08.04.2024 21:30";79
"08.04.2024 21:45";79
"08.04.2024 22:00";79
"08.04.2024 22:15";79
"08.04.2024 22:30";80
"08.04.2024 22:45";80
"08.04.2024 23:00";80
"08.04.2024 23:15";80
"08.04.2024 23:30";80
"08.04.2024 23:45";79
"09.04.2024 00:00";79
"09.04.2024 00:15";79
"09.04.2024 00:30";79
"09.04.2024 00:45";79
"09.04.2024 01:00";79
"09.04.2024 01:15";79
"09.04.2024 01:30";79
"09.04.2024 01:45";79
"09.04.2024 02:00";79
"09.04.2024 02:15";79
"09.04.2024 02:30";79
"09.04.2024 02:45";79
"09.04.2024 03:00";79
"09.04.2024 03:15";79
"09.04.2024 03:30";79
"09.04.2024 03:45";78
"09.04.2024 04:00";78
"09.04.2024 04:15";78
"09.04.2024 04:30";78
"09.04.2024 04:45";78
"09.04.2024 05:00";78
"09.04.2024 05:15";78
"09.04.2024 05:30";78
"09.04.2024 05:45";78
"09.04.2024 06:00";78
"09.04.2024 06:15";78
"09.04.2024 06:30";78
"09.04.2024 06:45";78
"09.04.2024 07:00";78
"09.04.2024 07:15";78
"09.04.2024 07:30";78
"09.04.2024 07:45";78
"09.04.2024 08:00";78
"09.04.2024 08:15";78
"09.04.2024 08:30";78
"09.04.2024 08:45";78
"09.04.2024 09:00";78
"09.04.2024 09:15";78
"09.04.2024 09:30";78
"09.04.2024 09:45";78
"09.04.2024 10:00";78
"09.04.2024 10:15";78
"09.04.2024 10:30";78
"09.04.2024 10:45";78
"09.04.2024 11:00";78
"09.04.2024 11:15";78
"09.04.2024 11:30";78
"09.04.2024 11:45";78
"09.04.2024 12:00";78
"09.04.2024 12:15";78
"09.04.2024 12:30";78
"09.04.2024 12:45";78
"09.04.2024 13:00";79
"09.04.2024 13:15";79
"09.04.2024 13:30";79
"09.04.2024 13:45";79
"09.04.2024 14:00";79
"09.04.2024 14:15";79
"09.04.2024 14:30";79
"09.04.2024 14:45";79
"09.04.2024 15:00";79
"09.04.2024 15:15";79
"09.04.2024 15:30";79
"09.04.2024 15:45";79
"09.04.2024 16:00";79
"09.04.2024 16:15";79
"09.04.2024 16:30";79
"09.04.2024 16:45";79
"09.04.2024 17:00";80
"09.04.2024 17:15";80
"09.04.2024 17:30";81
"09.04.2024 17:45";81
"09.04.2024 18:00";81
"09.04.2024 18:15";81
"09.04.2024 18:30";80
"09.04.2024 18:45";80
"09.04.2024 19:00";79
"09.04.2024 19:15";79
"09.04.2024 19:30";78
"09.04.2024 19:45";78
"09.04.2024 20:00";77
"09.04.2024 20:15";77
"09.04.2024 20:30";76
"09.04.2024 20:45";76
"09.04.2024 21:00";76
"09.04.2024 21:15";75
"09.04.2024 21:30";75
"09.04.2024 21:45";75
"09.04.2024 22:00";75
"09.04.2024 22:15";75
"09.04.2024 22:30";75
"09.04.2024 22:45";75
"09.04.2024 23:00";75
"09.04.2024 23:15";76
"09.04.2024 23:30";76
"09.04.2024 23:45";76
"10.04.2024 00:00";75
"10.04.2024 00:15";75
"10.04.2024 00:30";75
"10.04.2024 00:45";76
"10.04.2024 01:00";76
"10.04.2024 01:15";76
"10.04.2024 01:30";76
"10.04.2024 01:45";76
"10.04.2024 02:00";76
"10.04.2024 02:15";76
"10.04.2024 02:30";76
"10.04.2024 02:45";76
"10.04.2024 03:00";76
"10.04.2024 03:15";76
"10.04.2024 03:30";76
"10.04.2024 03:45";77
"10.04.2024 04:00";77
"10.04.2024 04:15";77
"10.04.2024 04:30";77
"10.04.2024 04:45";77
"10.04.2024 05:00";77
"10.04.2024 05:15";77
"10.04.2024 05:30";77
"10.04.2024 05:45";77
"10.04.2024 06:00";77
"10.04.2024 06:15";77
"10.04.2024 06:30";77
"10.04.2024 06:45";77
"10.04.2024 07:00";77
"10.04.2024 07:15";77
"10.04.2024 07:30";77
"10.04.2024 07:45";77
"10.04.2024 08:00";77
"10.04.2024 08:15";77
"10.04.2024 08:30";77
"10.04.2024 08:45";78
"10.04.2024 09:00";78
"10.04.2024 09:15";78
"10.04.2024 09:30";78
"10.04.2024 09:45";78
"10.04.2024 10:00";77
"10.04.2024 10:15";76
"10.04.2024 10:30";75
"10.04.2024 10:45";74
"10.04.2024 11:00";74
"10.04.2024 11:15";74
"10.04.2024 11:30";75
"10.04.2024 11:45";75
"10.04.2024 12:00";76
"10.04.2024 12:15";76
"10.04.2024 12:30";77
"10.04.2024 12:45";77
"10.04.2024 13:00";77
"10.04.2024 13:15";77
"10.04.2024 13:30";77
"10.04.2024 13:45";77
"10.04.2024 14:00";77
"10.04.2024 14:15";77
"10.04.2024 14:30";77
"10.04.2024 14:45";76
"10.04.2024 15:00";76
"10.04.2024 15:15";76
"10.04.2024 15:30";76
"10.04.2024 15:45";76
"10.04.2024 16:00";76
"10.04.2024 16:15";76
"10.04.2024 16:30";76
"10.04.2024 16:45";76
"10.04.2024 17:00";76
"10.04.2024 17:15";76
"10.04.2024 17:30";76
"10.04.2024 17:45";76
"10.04.2024 18:00";76
"10.04.2024 18:15";76
"10.04.2024 18:30";76
"10.04.2024 18:45";76
"10.04.2024 19:00";76
"10.04.2024 19:15";76
"10.04.2024 19:30";76
"10.04.2024 19:45";76
"10.04.2024 20:00";76
"10.04.2024 20:15";76
"10.04.2024 20:30";76
"10.04.2024 20:45";76
"10.04.2024 21:00";76
"10.04.2024 21:15";76
"10.04.2024 21:30";76
"10.04.2024 21:45";76
"10.04.2024 22:00";76
"10.04.2024 22:15";76
"10.04.2024 22:30";76
"10.04.2024 22:45";76
"10.04.2024 23:00";76
"10.04.2024 23:15";76
"10.04.2024 23:30";76
"10.04.2024 23:45";76
"11.04.2024 00:00";76
"11.04.2024 00:15";75
"11.04.2024 00:30";75
"11.04.2024 00:45";75
"11.04.2024 01:00";75
"11.04.2024 01:15";75
"11.04.2024 01:30";75
"11.04.2024 01:45";75
"11.04.2024 02:00";75
"11.04.2024 02:15";75
"11.04.2024 02:30";75
"11.04.2024 02:45";75
"11.04.2024 03:00";75
"11.04.2024 03:15";75
"11.04.2024 03:30";75
"11.04.2024 03:45";75
"11.04.2024 04:00";75
"11.04.2024 04:15";75
"11.04.2024 04:30";75
"11.04.2024 04:45";75
"11.04.2024 05:00";75
"11.04.2024 05:15";75
"11.04.2024 05:30";75
"11.04.2024 05:45";75
"11.04.2024 06:00";75
"11.04.2024 06:15";75
"11.04.2024 06:30";75
"11.04.2024 06:45";75
"11.04.2024 07:00";75
"11.04.2024 07:15";75
"11.04.2024 07:30";75
"11.04.2024 07:45";75
"11.04.2024 08:00";75
"11.04.2024 08:15";75
"11.04.2024 08:30";75
"11.04.2024 08:45";75
"11.04.2024 09:00";75
"11.04.2024 09:15";75
"11.04.2024 09:30";75
"11.04.2024 09:45";75
"11.04.2024 10:00";75
"11.04.2024 10:15";75
"11.04.2024 10:30";75
"11.04.2024 10:45";75
"11.04.2024 11:00";75
"11.04.2024 11:15";75
"11.04.2024 11:30";75
"11.04.2024 11:45";75
"11.04.2024 12:00";75
"11.04.2024 12:15";75
"11.04.2024 12:30";75
"11.04.2024 12:45";75
"11.04.2024 13:00";75
"11.04.2024 13:15";75
"11.04.2024 13:30";75
"11.04.2024 13:45";75
"11.04.2024 14:00";75
"11.04.2024 14:15";75
"11.04.2024 14:30";75
"11.04.2024 14:45";75
"11.04.2024 15:00";75
"11.04.2024 15:15";75
"11.04.2024 15:30";75
"11.04.2024 15:45";75
"11.04.2024 16:00";75
"11.04.2024 16:15";75
"11.04.2024 16:30";75
"11.04.2024 16:45";75
"11.04.2024 17:00";75
"11.04.2024 17:15";75
"11.04.2024 17:30";75
"11.04.2024 17:45";76
"11.04.2024 18:00";76
"11.04.2024 18:15";76
"11.04.2024 18:30";76
"11.04.2024 18:45";76
"11.04.2024 19:00";76
"11.04.2024 19:15";77
"11.04.2024 19:30";77
"11.04.2024 19:45";77
"11.04.2024 20:00";78
"11.04.2024 20:15";78
"11.04.2024 20:30";78
"11.04.2024 20:45";79
"11.04.2024 21:00";79
"11.04.2024 21:15";79
"11.04.2024 21:30";79
"11.04.2024 21:45";79
"11.04.2024 22:00";78
"11.04.2024 22:15";78
"11.04.2024 22:30";78
"11.04.2024 22:45";78
"11.04.2024 23:00";77
"11.04.2024 23:15";77
"11.04.2024 23:30";77
"11.04.2024 23:45";76
"12.04.2024 00:00";76
"12.04.2024 00:15";75
"12.04.2024 00:30";74
"12.04.2024 00:45";74
"12.04.2024 01:00";73
"12.04.2024 01:15";73
"12.04.2024 01:30";72
"12.04.2024 01:45";72
"12.04.2024 02:00";72
"12.04.2024 02:15";72
"12.04.2024 02:30";72
"12.04.2024 02:45";72
"12.04.2024 03:00";72
"12.04.2024 03:15";72
"12.04.2024 03:30";73
"12.04.2024 03:45";73
"12.04.2024 04:00";73
"12.04.2024 04:15";73
"12.04.2024 04:30";73
"12.04.2024 04:45";73
"12.04.2024 05:00";74
"12.04.2024 05:15";74
"12.04.2024 05:30";74
"12.04.2024 05:45";75
"12.04.2024 06:00";75
"12.04.2024 06:15";75
"12.04.2024 06:30";76
"12.04.2024 06:45";76
"12.04.2024 07:00";76
"12.04.2024 07:15";76
"12.04.2024 07:30";76
"12.04.2024 07:45";76
"12.04.2024 08:00";76
"12.04.2024 08:15";76
"12.04.2024 08:30";76
"12.04.2024 08:45";76
"12.04.2024 09:00";76
"12.04.2024 09:15";76
"12.04.2024 09:30";77
"12.04.2024 09:45";77
"12.04.2024 10:00";77
"12.04.2024 10:15";77
"12.04.2024 10:30";77
"12.04.2024 10:45";77
"12.04.2024 11:00";77
"12.04.2024 11:15";77
"12.04.2024 11:30";78
"12.04.2024 11:45";78
"12.04.2024 12:00";78
"12.04.2024 12:15";78
"12.04.2024 12:30";78
"12.04.2024 12:45";78
"12.04.2024 13:00";78
"12.04.2024 13:15";78
"12.04.2024 13:30";78
"12.04.2024 13:45";78
"12.04.2024 14:00";78
"12.04.2024 14:15";78
"12.04.2024 14:30";78
"12.04.2024 14:45";78
"12.04.2024 15:00";78
"12.04.2024 15:15";78
"12.04.2024 15:30";78
"12.04.2024 15:45";78
"12.04.2024 16:00";78
"12.04.2024 16:15";78
"12.04.2024 16:30";78
"12.04.2024 16:45";78
"12.04.2024 17:00";78
"12.04.2024 17:15";78
"12.04.2024 17:30";78
"12.04.2024 17:45";78
"12.04.2024 18:00";78
"12.04.2024 18:15";78
"12.04.2024 18:30";78
"12.04.2024 18:45";78
"12.04.2024 19:00";78
"12.04.2024 19:15";78
"12.04.2024 19:30";78
"12.04.2024 19:45";78
"12.04.2024 20:00";78
"12.04.2024 20:15";78
"12.04.2024 20:30";78
"12.04.2024 20:45";78
"12.04.2024 21:00";77
"12.04.2024 21:15";77
"12.04.2024 21:30";77
"12.04.2024 21:45";77
"12.04.2024 22:00";77
"12.04.2024 22:15";77
"12.04.2024 22:30";77
"12.04.2024 22:45";76
"12.04.2024 23:00";76
"12.04.2024 23:15";76
"12.04.2024 23:30";76
"12.04.2024 23:45";76
"13.04.2024 00:00";76
"13.04.2024 00:15";75
"13.04.2024 00:30";75
"13.04.2024 00:45";75
"13.04.2024 01:00";75
"13.04.2024 01:15";75
"13.04.2024 01:30";74
"13.04.2024 01:45";74
"13.04.2024 02:00";74
"13.04.2024 02:15";74
"13.04.2024 02:30";74
"13.04.2024 02:45";74
"13.04.2024 03:00";74
"13.04.2024 03:15";74
"13.04.2024 03:30";74
"13.04.2024 03:45";74
"13.04.2024 04:00";73
"13.04.2024 04:15";73
"13.04.2024 04:30";73
"13.04.2024 04:45";74
"13.04.2024 05:00";74
"13.04.2024 05:15";74
"13.04.2024 05:30";73
"13.04.2024 05:45";73
"13.04.2024 06:00";73
"13.04.2024 06:15";73
"13.04.2024 06:30";73
"13.04.2024 06:45";73
"13.04.2024 07:00";73